This is the latest recevied weather packets stored in our database for station/object AA8FM-13. If no packets are shown the sender has not sent any weather packets the latest 10 day(s).
| Time | Temp. | Humidity | Pressure | Rain* | Wind** | Luminosity | Snow |
|---|---|---|---|---|---|---|---|
| 1778008442 | 23.89° C | 44% | 1007.1 hPa | 0 mm | - | 322 W/m² | - |
| 1778008138 | 23.89° C | 43% | 1007.3 hPa | 0 mm | - | 402 W/m² | - |
| 1778007833 | 23.89° C | 44% | 1007.1 hPa | 0 mm | - | 376 W/m² | - |
| 1778007529 | 23.89° C | 45% | 1007.2 hPa | 0 mm | - | 395 W/m² | - |
| 1778007226 | 23.89° C | 43% | 1007.2 hPa | 0 mm | - | 385 W/m² | - |
| 1778006922 | 23.89° C | 46% | 1007.4 hPa | 0 mm | - | 365 W/m² | - |
| 1778006619 | 23.89° C | 47% | 1007.1 hPa | 0 mm | - | 350 W/m² | - |
| 1778006316 | 23.89° C | 45% | 1007.4 hPa | 0 mm | - | 279 W/m² | - |
| 1778006012 | 24.44° C | 44% | 1007.6 hPa | 0 mm | - | 390 W/m² | - |
| 1778005709 | 24.44° C | 46% | 1007.2 hPa | 0 mm | - | 369 W/m² | - |
| 1778005406 | 24.44° C | 45% | 1007.4 hPa | 0 mm | - | 397 W/m² | - |
| 1778005103 | 23.89° C | 47% | 1007.2 hPa | 0 mm | - | 431 W/m² | - |
| 1778004801 | 24.44° C | 45% | 1006.9 hPa | 0 mm | - | 377 W/m² | - |
| 1778004496 | 24.44° C | 44% | 1007.1 hPa | 0 mm | - | 521 W/m² | - |
| 1778004193 | 24.44° C | 47% | 1006.9 hPa | 0 mm | - | 613 W/m² | - |
| 1778003890 | 23.89° C | 50% | 1007.2 hPa | 0 mm | - | 553 W/m² | - |
| 1778003586 | 24.44° C | 50% | 1007.1 hPa | 0 mm | - | 583 W/m² | - |
| 1778003283 | 25° C | 46% | 1007.3 hPa | 0 mm | - | 600 W/m² | - |
| 1778002980 | 25° C | 48% | 1007.2 hPa | 0 mm | - | 603 W/m² | - |
| 1778002676 | 24.44° C | 46% | 1007.2 hPa | 0 mm | - | 673 W/m² | - |
| 1778002373 | 25° C | 49% | 1007.5 hPa | 0 mm | - | 679 W/m² | - |
| 1778002070 | 24.44° C | 46% | 1007.4 hPa | 0 mm | - | 728 W/m² | - |
| 1778001767 | 24.44° C | 48% | 1007.5 hPa | 0 mm | - | 386 W/m² | - |
| 1778001466 | 23.89° C | 48% | 1007.3 hPa | 0 mm | - | 694 W/m² | - |
| 1778001163 | 24.44° C | 47% | 1007.6 hPa | 0 mm | - | 694 W/m² | - |
* Rain latest hour (hover to see other rain measurements)
** Current wind speed in m/s (hover to see current wind gust speed)